Austin Bergstrom, TX

5:27 AM CDT on March 28, 2017 (GMT -0500)
Austin Bergstrom International

Weather History for KAUS - October, 2013

Change the Weather History Date:

Thursday, October 31, 2013

  Actual Average Record
Temperature  
Mean Temperature 67 °F 64 °F  
Max Temperature 82 °F 77 °F 90 °F (1997)
Min Temperature 51 °F 51 °F 36 °F (1980)
Degree Days  
Heating Degree Days 0 4  
Month to date heating degree days 36 50  
Since 1 July heating degree days 36 51  
Cooling Degree Days 2 3  
Month to date cooling degree days 190 175  
Year to date cooling degree days 3003 2703  
Growing Degree Days 18 (Base 50)    
Moisture  
Dew Point 62 °F    
Average Humidity 61    
Maximum Humidity 100    
Minimum Humidity 21    
Precipitation  
Precipitation 2.49 in 0.14 in 2.49 in (2013)
Month to date precipitation 9.80 4.24  
Year to date precipitation 34.02 29.49  
Snow  
Snow 0.00 in - - ()
Month to date snowfall 0.0  
Since 1 July snowfall 0.0  
Since 1 September snowfall 0.0  
Snow Depth 0.00 in    
Sea Level Pressure  
Sea Level Pressure 29.82 in    
Wind  
Wind Speed 6 mph (SW)    
Max Wind Speed 26 mph    
Max Gust Speed 33 mph    
Visibility 8 miles    
Events Fog , Rain , Thunderstorm    
T = Trace of Precipitation, MM = Missing Value Source: NWS Daily Summary

Daily Weather History Graph

Daily Weather History Graph

Search for Another Location

Airport or City:

Trip Planner

Search our weather history database for the weather conditions in past years. The results will help you decide how hot, cold, wet, or windy it might be!

Date:

Astronomy

Oct. 31, 2013 Rise Set
Actual Time 7:44 AM CDT 6:43 PM CDT
Civil Twilight 7:19 AM CDT 7:08 PM CDT
Nautical Twilight 6:51 AM CDT 7:36 PM CDT
Astronomical Twilight 6:23 AM CDT 8:04 PM CDT
Moon 4:47 AM CDT (10/31) 4:52 PM CDT (10/31)
Length of Visible Light 11h 49m
Length of Day
10h 59m
Waning Crescent, 10% of the Moon is Illuminated
Oct 31
Waning Crescent
Nov 3
New
Nov 9
First Quarter
Nov 17
Full
Nov 25
Last Quarter

Hourly Weather History & Observations

Time (CDT) Temp. Dew Point Humidity Pressure Visibility Wind Dir Wind Speed Gust Speed Precip Events Conditions
12:53 AM 73.9 °F 71.1 °F 91% 29.77 in 2.0 mi SSW 13.8 mph 39.1 mph 0.28 in Rain , Thunderstorm Heavy Thunderstorms and Rain
12:59 AM 71.6 °F 71.6 °F 100% 29.78 in 2.0 mi South 20.7 mph 26.5 mph 0.30 in Rain , Thunderstorm Heavy Thunderstorms and Rain
1:03 AM 71.6 °F 69.8 °F 94% 29.77 in 1.0 mi SSW 23.0 mph 29.9 mph 0.42 in Rain , Thunderstorm Heavy Thunderstorms and Rain
1:30 AM 71.6 °F 71.6 °F 100% 29.79 in 1.0 mi SSW 26.5 mph 33.4 mph 0.93 in Rain , Thunderstorm Thunderstorms and Rain
1:53 AM 71.1 °F 71.1 °F 100% 29.77 in 1.0 mi South 13.8 mph 21.9 mph 1.18 in Rain , Thunderstorm Thunderstorms and Rain
2:51 AM 69.8 °F 69.8 °F 100% 29.82 in 3.0 mi Calm Calm - 0.65 in Rain , Thunderstorm Thunderstorms and Rain
2:53 AM 69.1 °F 69.1 °F 100% 29.80 in 3.0 mi Calm Calm - 0.66 in Rain , Thunderstorm Thunderstorms and Rain
3:16 AM 69.8 °F 69.8 °F 100% 29.83 in 3.0 mi South 6.9 mph - 0.16 in Rain , Thunderstorm Light Thunderstorms and Rain
3:53 AM 69.1 °F 69.1 °F 100% 29.78 in 6.0 mi South 9.2 mph - 0.40 in Rain , Thunderstorm Light Thunderstorms and Rain
4:53 AM 69.1 °F 69.1 °F 100% 29.78 in 7.0 mi SSE 5.8 mph - 0.21 in Rain , Thunderstorm Thunderstorms and Rain
5:03 AM 68.0 °F 68.0 °F 100% 29.78 in 2.5 mi SE 10.4 mph - 0.20 in Rain , Thunderstorm Thunderstorms and Rain
5:13 AM 68.0 °F 68.0 °F 100% 29.78 in 8.0 mi SSE 11.5 mph - 0.26 in Rain , Thunderstorm Light Thunderstorms and Rain
5:53 AM 66.9 °F 66.0 °F 97% 29.76 in 6.0 mi South 15.0 mph - 0.32 in Rain , Thunderstorm Light Thunderstorms and Rain
6:53 AM 68.0 °F 68.0 °F 100% 29.76 in 9.0 mi Calm Calm - 0.01 in Rain Light Rain
7:16 AM 69.8 °F 69.8 °F 100% 29.82 in 10.0 mi Calm Calm - 0.01 in   Overcast
7:40 AM 69.8 °F 69.8 °F 100% 29.83 in 10.0 mi Calm Calm - 0.01 in Rain Light Rain
7:53 AM 69.1 °F 69.1 °F 100% 29.80 in 10.0 mi SSE 4.6 mph - 0.01 in   Overcast
8:28 AM 69.8 °F 69.8 °F 100% 29.83 in 10.0 mi Calm Calm - N/A   Overcast
8:41 AM 69.8 °F 69.8 °F 100% 29.84 in 9.0 mi NNW 6.9 mph - N/A   Overcast
8:53 AM 69.1 °F 69.1 °F 100% 29.83 in 10.0 mi NW 4.6 mph - N/A   Overcast
9:43 AM 71.6 °F 71.6 °F 100% 29.86 in 9.0 mi Calm Calm - N/A   Mostly Cloudy
9:53 AM 71.1 °F 71.1 °F 100% 29.83 in 10.0 mi Calm Calm - N/A   Mostly Cloudy
10:05 AM 71.6 °F 71.6 °F 100% 29.85 in 10.0 mi WSW 3.5 mph - N/A   Mostly Cloudy
10:53 AM 75.9 °F 69.1 °F 79% 29.83 in 10.0 mi West 6.9 mph - N/A   Mostly Cloudy
11:53 AM 79.0 °F 64.9 °F 62% 29.83 in 10.0 mi NW 13.8 mph 21.9 mph N/A   Mostly Cloudy
12:53 PM 78.1 °F 53.1 °F 42% 29.83 in 10.0 mi NW 10.4 mph 19.6 mph N/A   Scattered Clouds
1:53 PM 81.0 °F 51.1 °F 35% 29.81 in 10.0 mi NW 11.5 mph 18.4 mph N/A   Scattered Clouds
2:53 PM 82.0 °F 39.9 °F 22% 29.80 in 10.0 mi West 13.8 mph 21.9 mph N/A   Scattered Clouds
3:53 PM 81.0 °F 39.0 °F 22% 29.79 in 10.0 mi NW 11.5 mph - N/A   Scattered Clouds
4:53 PM 80.1 °F 37.9 °F 22% 29.80 in 10.0 mi NNW 12.7 mph - N/A   Scattered Clouds
5:53 PM 77.0 °F 39.0 °F 25% 29.81 in 10.0 mi Variable 4.6 mph - N/A   Scattered Clouds
6:53 PM 64.0 °F 48.0 °F 56% 29.84 in 10.0 mi Calm Calm - N/A   Scattered Clouds
7:53 PM 57.9 °F 52.0 °F 81% 29.86 in 10.0 mi Calm Calm - N/A   Clear
8:53 PM 57.0 °F 53.1 °F 87% 29.89 in 10.0 mi Calm Calm - N/A   Clear
9:53 PM 55.0 °F 52.0 °F 89% 29.89 in 10.0 mi West 3.5 mph - N/A   Clear
10:53 PM 54.0 °F 51.1 °F 90% 29.89 in 10.0 mi Calm Calm - N/A   Clear
11:53 PM 54.0 °F 52.0 °F 93% 29.89 in 10.0 mi Calm Calm - N/A   Clear